Weather History for KFVE - August, 2013

Change the Weather History Date:

Tuesday, August 20, 2013

  Actual Average Record
Temperature  
Mean Temperature 66 °F 62 °F  
Max Temperature 73 °F 72 °F 82 °F (2015)
Min Temperature 58 °F 53 °F 8 °F (2015)
Degree Days  
Heating Degree Days 0    
Month to date heating degree days 73  
Since 1 July heating degree days 124  
Cooling Degree Days 1    
Month to date cooling degree days 6  
Year to date cooling degree days 120  
Growing Degree Days 16 (Base 50)    
Moisture  
Dew Point 63 °F    
Average Humidity 88    
Maximum Humidity 100    
Minimum Humidity 73    
Precipitation  
Precipitation 0.18 in 0.13 in 0.38 in (2005)
Month to date precipitation 6.08 2.53  
Year to date precipitation 23.73 20.59  
Sea Level Pressure  
Sea Level Pressure 29.97 in    
Wind  
Wind Speed 4 mph (SE)    
Max Wind Speed 10 mph    
Max Gust Speed 13 mph    
Visibility 8 miles    
Events Rain    
T = Trace of Precipitation, MM = Missing Value Source: NWS Daily Summary

Daily Weather History Graph

Daily Weather History Graph

Search for Another Location

Airport or City:

Trip Planner

Search our weather history database for the weather conditions in past years. The results will help you decide how hot, cold, wet, or windy it might be!

Date:

Astronomy

Aug. 20, 2013 Rise Set
Actual Time 5:36 AM EDT 7:35 PM EDT
Civil Twilight 5:03 AM EDT 8:08 PM EDT
Nautical Twilight 4:22 AM EDT 8:48 PM EDT
Astronomical Twilight 3:37 AM EDT 9:33 PM EDT
Moon 7:00 PM EDT (8/20) 5:04 AM EDT (8/20)
Length of Visible Light 15h 04m
Length of Day
13h 58m
Full, 100% of the Moon is Illuminated
Aug 20
Full
Aug 20
Full
Aug 28
Last Quarter
Sep 5
New
Sep 12
First Quarter

Hourly Weather History & Observations

Time (EDT) Temp. Dew Point Humidity Pressure Visibility Wind Dir Wind Speed Gust Speed Precip Events Conditions
12:53 AM 62.1 °F 55.9 °F 80% 29.88 in 10.0 mi West 4.6 mph - N/A   Partly Cloudy
1:53 AM 59.0 °F 57.0 °F 93% 29.90 in 10.0 mi WSW 6.9 mph - N/A   Clear
2:53 AM 60.1 °F 57.0 °F 90% 29.91 in 10.0 mi SW 5.8 mph - 0.00 in Rain Light Rain
3:53 AM 60.1 °F 57.9 °F 93% 29.90 in 10.0 mi Calm Calm - 0.00 in   Mostly Cloudy
4:53 AM 60.1 °F 57.9 °F 93% 29.91 in 9.0 mi SSW 6.9 mph - 0.01 in Rain Light Rain
5:53 AM 60.1 °F 57.9 °F 93% 29.94 in 10.0 mi WSW 4.6 mph - 0.00 in   Clear
6:53 AM 60.1 °F 59.0 °F 96% 29.94 in 9.0 mi West 3.5 mph - N/A   Clear
7:53 AM 62.1 °F 60.1 °F 93% 29.97 in 10.0 mi SW 3.5 mph - N/A   Clear
8:53 AM 64.0 °F 61.0 °F 90% 29.97 in 10.0 mi South 3.5 mph - N/A   Partly Cloudy
9:53 AM 66.9 °F 61.0 °F 81% 29.97 in 10.0 mi Calm Calm - N/A   Scattered Clouds
10:53 AM 66.9 °F 61.0 °F 81% 29.98 in 10.0 mi South 4.6 mph - N/A   Overcast
11:53 AM 71.1 °F 63.0 °F 75% 29.98 in 10.0 mi Variable 4.6 mph - N/A   Scattered Clouds
12:29 PM 71.6 °F 62.6 °F 73% 29.98 in 10.0 mi SE 4.6 mph - N/A   Overcast
12:44 PM 69.8 °F 62.6 °F 78% 29.98 in 10.0 mi SE 3.5 mph - N/A   Overcast
12:53 PM 69.1 °F 63.0 °F 81% 29.97 in 6.0 mi SE 3.5 mph - 0.01 in Rain Light Rain
1:22 PM 69.8 °F 64.4 °F 83% 29.99 in 10.0 mi Calm Calm - 0.00 in   Overcast
1:41 PM 69.8 °F 64.4 °F 83% 29.99 in 1.8 mi Calm Calm - 0.06 in Rain Heavy Rain
1:45 PM 68.0 °F 64.4 °F 88% 29.99 in 1.0 mi Calm Calm - 0.11 in Rain Heavy Rain
1:50 PM 68.0 °F 64.4 °F 88% 29.99 in 1.5 mi Calm Calm - 0.11 in Rain Light Rain
1:53 PM 68.0 °F 66.0 °F 93% 29.98 in 4.0 mi Calm Calm - 0.11 in Rain Light Rain
2:27 PM 71.6 °F 66.2 °F 83% 29.99 in 10.0 mi Calm Calm - 0.00 in   Overcast
2:53 PM 71.1 °F 64.9 °F 81% 29.98 in 10.0 mi ENE 3.5 mph - 0.00 in   Overcast
3:53 PM 72.0 °F 64.9 °F 78% 29.97 in 10.0 mi East 4.6 mph - N/A   Mostly Cloudy
4:53 PM 72.0 °F 64.9 °F 78% 29.97 in 10.0 mi SSE 5.8 mph - N/A   Mostly Cloudy
5:53 PM 71.1 °F 66.0 °F 84% 29.99 in 10.0 mi ENE 3.5 mph - N/A   Overcast
6:53 PM 69.1 °F 66.0 °F 90% 30.01 in 8.0 mi Calm Calm - 0.00 in Rain Light Rain
7:53 PM 66.9 °F 66.0 °F 97% 29.99 in 5.0 mi East 5.8 mph - 0.04 in   Overcast
8:53 PM 66.9 °F 64.9 °F 93% 30.01 in 8.0 mi East 5.8 mph - N/A   Mostly Cloudy
9:53 PM 66.0 °F 64.9 °F 96% 30.01 in 5.0 mi ESE 4.6 mph - N/A   Clear
10:26 PM 64.4 °F 64.4 °F 100% 30.03 in 2.0 mi ESE 3.5 mph - N/A   Partly Cloudy
10:41 PM 64.4 °F 64.4 °F 100% 30.03 in 4.0 mi ESE 4.6 mph - N/A   Clear
10:53 PM 64.9 °F 64.0 °F 97% 30.01 in 2.5 mi ESE 3.5 mph - N/A   Clear
11:05 PM 64.4 °F 64.4 °F 100% 30.02 in 4.0 mi ESE 3.5 mph - N/A   Clear
11:53 PM 64.0 °F 63.0 °F 96% 30.02 in 6.0 mi SE 5.8 mph - N/A   Clear